• In Latvia
  • List of Countries
  • For 7 days
  • Water Temperature
  • Satellite Maps
  • Weather Map
  • Weather Widgets
  • user-avatar
    Login

    Hourly Weather Kaprun

    Today, 24 February, Saturday

    Time Temperature Precipitation Wind Pressure Humidity
    00:00 -11°C° 0 mm 1 mps 588 mmHg 89%
    01:00 -11°C° 0 mm 1 mps 588 mmHg 88%
    02:00 -11°C° 0 mm 1 mps 588 mmHg 88%
    03:00 -11°C° 0 mm 1 mps 588 mmHg 88%
    04:00 -11°C° 0 mm 1 mps 588 mmHg 88%
    05:00 -11°C° 0 mm 1 mps 588 mmHg 89%
    06:00 -11°C° 0 mm 1 mps 588 mmHg 89%
    07:00 -12°C° 0 mm 1 mps 588 mmHg 90%
    08:00 -10°C° 0 mm 1 mps 589 mmHg 89%
    09:00 -8°C° 0 mm 1 mps 590 mmHg 89%
    10:00 -6°C° 0 mm 1 mps 591 mmHg 88%
    11:00 -4°C° 0 mm 1 mps 591 mmHg 90%
    12:00 -4°C° 0 mm 1 mps 591 mmHg 92%
    13:00 -5°C° 0 mm 2 mps 591 mmHg 94%
    14:00 -5°C° 0.1 mm 2 mps 591 mmHg 93%
    15:00 -6°C° 0.1 mm 2 mps 591 mmHg 92%
    16:00 -6°C° 0.1 mm 2 mps 591 mmHg 91%
    17:00 -8°C° 0.1 mm 2 mps 590 mmHg 93%
    18:00 -9°C° 0.1 mm 2 mps 590 mmHg 94%
    19:00 -10°C° 0.1 mm 2 mps 590 mmHg 96%
    20:00 -12°C° 0.1 mm 2 mps 590 mmHg 95%
    21:00 -13°C° 0.1 mm 2 mps 590 mmHg 95%
    22:00 -12°C° 0.1 mm 1 mps 590 mmHg 95%
    23:00 -13°C° 0 mm 1 mps 589 mmHg 95%

    Tomorrow, 25 February, Sunday

    Time Temperature Precipitation Wind Pressure Humidity
    00:00 -13°C° 0 mm 1 mps 589 mmHg 95%
    01:00 -14°C° 0 mm 1 mps 589 mmHg 95%
    02:00 -15°C° 0 mm 1 mps 589 mmHg 95%
    03:00 -15°C° 0 mm 1 mps 588 mmHg 94%
    04:00 -16°C° 0 mm 1 mps 588 mmHg 94%
    05:00 -16°C° 0 mm 1 mps 588 mmHg 94%
    06:00 -17°C° 0 mm 1 mps 587 mmHg 94%
    07:00 -17°C° 0 mm 1 mps 587 mmHg 94%
    08:00 -16°C° 0 mm 1 mps 588 mmHg 92%
    09:00 -17°C° 0 mm 2 mps 588 mmHg 89%
    10:00 -15°C° 0 mm 2 mps 589 mmHg 87%
    11:00 -15°C° 0.1 mm 2 mps 589 mmHg 86%
    12:00 -14°C° 0.1 mm 2 mps 589 mmHg 84%
    13:00 -14°C° 0.1 mm 2 mps 589 mmHg 83%
    14:00 -14°C° 0.1 mm 2 mps 589 mmHg 84%
    15:00 -14°C° 0.1 mm 2 mps 588 mmHg 86%
    16:00 -15°C° 0.1 mm 2 mps 588 mmHg 87%
    17:00 -16°C° 0.1 mm 2 mps 588 mmHg 89%
    18:00 -17°C° 0.1 mm 2 mps 588 mmHg 92%
    19:00 -18°C° 0.1 mm 2 mps 587 mmHg 94%
    20:00 -19°C° 0.1 mm 2 mps 587 mmHg 94%
    21:00 -17°C° 0.1 mm 1 mps 587 mmHg 94%
    22:00 -18°C° 0.1 mm 1 mps 587 mmHg 95%
    23:00 -18°C° 0.1 mm 1 mps 587 mmHg 95%

    Day after tomorrow, 26 February, Monday

    Time Temperature Precipitation Wind Pressure Humidity
    00:00 -19°C° 0.1 mm 1 mps 586 mmHg 95%
    01:00 -19°C° 0.1 mm 1 mps 586 mmHg 95%
    02:00 -19°C° 0.1 mm 1 mps 586 mmHg 95%
    03:00 -20°C° 0.1 mm 1 mps 585 mmHg 95%
    04:00 -20°C° 0.1 mm 1 mps 585 mmHg 95%
    05:00 -20°C° 0.1 mm 1 mps 585 mmHg 95%
    06:00 -23°C° 0.1 mm 2 mps 585 mmHg 95%
    07:00 -24°C° 0.1 mm 2 mps 585 mmHg 94%
    08:00 -23°C° 0.1 mm 2 mps 585 mmHg 92%
    09:00 -21°C° 0.1 mm 2 mps 585 mmHg 90%
    10:00 -20°C° 0.1 mm 2 mps 586 mmHg 88%
    11:00 -19°C° 0.1 mm 2 mps 586 mmHg 86%
    12:00 -18°C° 0.1 mm 2 mps 586 mmHg 84%
    13:00 -18°C° 0.1 mm 2 mps 586 mmHg 83%
    14:00 -18°C° 0.1 mm 2 mps 586 mmHg 84%
    15:00 -18°C° 0.1 mm 2 mps 585 mmHg 86%
    16:00 -18°C° 0.1 mm 2 mps 585 mmHg 87%
    17:00 -19°C° 0.1 mm 2 mps 585 mmHg 90%
    18:00 -20°C° 0.1 mm 2 mps 585 mmHg 92%
    19:00 -21°C° 0.1 mm 2 mps 584 mmHg 95%
    20:00 -21°C° 0.1 mm 2 mps 584 mmHg 95%
    21:00 -20°C° 0.1 mm 1 mps 584 mmHg 95%
    22:00 -20°C° 0.1 mm 1 mps 584 mmHg 95%
    23:00 -21°C° 0.1 mm 1 mps 584 mmHg 95%

    27 February, Tuesday

    Time Temperature Precipitation Wind Pressure Humidity
    00:00 -21°C° 0.1 mm 1 mps 583 mmHg 95%
    01:00 -22°C° 0.1 mm 1 mps 583 mmHg 95%
    02:00 -22°C° 0 mm 1 mps 582 mmHg 95%
    03:00 -22°C° 0 mm 1 mps 582 mmHg 94%
    04:00 -23°C° 0 mm 1 mps 582 mmHg 94%
    05:00 -23°C° 0 mm 1 mps 581 mmHg 94%
    06:00 -23°C° 0 mm 1 mps 581 mmHg 94%
    07:00 -24°C° 0 mm 1 mps 581 mmHg 94%
    08:00 -22°C° 0 mm 1 mps 582 mmHg 90%
    09:00 -20°C° 0 mm 1 mps 583 mmHg 87%
    10:00 -18°C° 0 mm 1 mps 584 mmHg 84%
    11:00 -17°C° 0 mm 1 mps 584 mmHg 80%
    12:00 -16°C° 0 mm 1 mps 584 mmHg 77%
    13:00 -16°C° 0 mm 1 mps 584 mmHg 74%
    14:00 -16°C° 0.1 mm 1 mps 584 mmHg 77%
    15:00 -15°C° 0.1 mm 1 mps 584 mmHg 81%
    16:00 -15°C° 0.1 mm 1 mps 584 mmHg 84%
    17:00 -17°C° 0.1 mm 1 mps 583 mmHg 88%
    18:00 -18°C° 0.1 mm 1 mps 583 mmHg 92%
    19:00 -20°C° 0.1 mm 1 mps 582 mmHg 95%
    20:00 -20°C° 0.1 mm 1 mps 582 mmHg 95%
    21:00 -21°C° 0.1 mm 1 mps 582 mmHg 95%
    22:00 -21°C° 0.1 mm 1 mps 582 mmHg 94%
    23:00 -22°C° 0 mm 1 mps 582 mmHg 94%

    28 February, Wednesday

    Time Temperature Precipitation Wind Pressure Humidity
    00:00 -22°C° 0 mm 1 mps 582 mmHg 93%
    01:00 -22°C° 0 mm 1 mps 582 mmHg 92%
    02:00 -22°C° 0 mm 1 mps 582 mmHg 91%
    03:00 -23°C° 0 mm 1 mps 582 mmHg 91%
    04:00 -23°C° 0 mm 1 mps 582 mmHg 90%
    05:00 -23°C° 0 mm 1 mps 582 mmHg 89%
    06:00 -23°C° 0 mm 1 mps 582 mmHg 88%
    07:00 -23°C° 0 mm 1 mps 582 mmHg 88%
    08:00 -20°C° 0 mm 1 mps 584 mmHg 83%
    09:00 -17°C° 0 mm 1 mps 585 mmHg 78%
    10:00 -14°C° 0 mm 1 mps 587 mmHg 73%
    11:00 -13°C° 0 mm 1 mps 587 mmHg 72%
    12:00 -12°C° 0 mm 1 mps 587 mmHg 72%
    13:00 -13°C° 0 mm 2 mps 587 mmHg 71%
    14:00 -13°C° 0 mm 2 mps 587 mmHg 73%
    15:00 -13°C° 0 mm 2 mps 587 mmHg 74%
    16:00 -13°C° 0 mm 2 mps 587 mmHg 76%
    17:00 -15°C° 0 mm 2 mps 586 mmHg 81%
    18:00 -16°C° 0 mm 2 mps 586 mmHg 86%
    19:00 -18°C° 0 mm 2 mps 586 mmHg 91%
    20:00 -18°C° 0 mm 2 mps 586 mmHg 91%
    21:00 -18°C° 0 mm 2 mps 586 mmHg 90%
    22:00 -18°C° 0 mm 2 mps 586 mmHg 90%
    23:00 -19°C° 0 mm 2 mps 586 mmHg 89%

    1 March, Thursday

    Time Temperature Precipitation Wind Pressure Humidity
    00:00 -19°C° 0 mm 2 mps 585 mmHg 89%
    01:00 -19°C° 0 mm 2 mps 585 mmHg 88%
    02:00 -19°C° 0 mm 3 mps 585 mmHg 88%
    03:00 -19°C° 0 mm 3 mps 584 mmHg 87%
    04:00 -18°C° 0 mm 3 mps 584 mmHg 87%
    05:00 -17°C° 0 mm 3 mps 584 mmHg 87%
    06:00 -16°C° 0 mm 3 mps 584 mmHg 88%
    07:00 -15°C° 0 mm 3 mps 584 mmHg 89%
    08:00 -13°C° 0.1 mm 3 mps 585 mmHg 89%
    09:00 -10°C° 0.1 mm 3 mps 585 mmHg 89%
    10:00 -9°C° 0.1 mm 4 mps 585 mmHg 89%
    11:00 -8°C° 0.1 mm 4 mps 585 mmHg 90%
    12:00 -7°C° 0.1 mm 4 mps 585 mmHg 92%
    13:00 -5°C° 0.1 mm 4 mps 585 mmHg 93%
    14:00 -5°C° 0.2 mm 4 mps 585 mmHg 93%
    15:00 -5°C° 0.2 mm 4 mps 584 mmHg 94%
    16:00 -5°C° 0.2 mm 4 mps 584 mmHg 94%
    17:00 -5°C° 0.1 mm 4 mps 584 mmHg 93%
    18:00 -6°C° 0.1 mm 3 mps 584 mmHg 93%
    19:00 -6°C° 0.1 mm 3 mps 584 mmHg 92%
    20:00 -6°C° 0 mm 3 mps 584 mmHg 92%
    21:00 -6°C° 0 mm 3 mps 584 mmHg 92%
    22:00 -7°C° 0 mm 4 mps 584 mmHg 92%
    23:00 -5°C° 0 mm 4 mps 583 mmHg 92%
    Show more